ACA260 KPDX-CYVR

Flight info

Callsign ACA260
Flight time 0h 47m
Altitude 30000
Route BTG J1 SEA DCT PAE GRIZZ9
Aircraft B38M/M-SDE1FGHILORVWXY/HB1

Departure

Time 2026-05-04 16:56
Airport Portland International Airport (KPDX)

Arrival

Time 2026-05-04 17:43
Airport Vancouver International Airport (CYVR)
Time Latitude Longitude Altitude Speed Heading
2026-05-04 16:41 45.59122 -122.59403 37 ft 0 kts 208°
2026-05-04 16:49 45.59127 -122.59399 39 ft 2 kts 208°
2026-05-04 16:49 45.59159 -122.59374 37 ft 3 kts 210°
2026-05-04 16:50 45.59178 -122.59342 40 ft 3 kts 266°
2026-05-04 16:50 45.59173 -122.59310 40 ft 1 kts 299°
2026-05-04 16:53 45.59236 -122.59473 38 ft 19 kts 299°
2026-05-04 16:54 45.59308 -122.59656 36 ft 23 kts 299°
2026-05-04 16:55 45.59547 -122.60066 41 ft 6 kts 27°
2026-05-04 16:55 45.59622 -122.59978 41 ft 10 kts 71°
2026-05-04 16:56 45.59497 -122.59603 40 ft 62 kts 119°
2026-05-04 16:56 45.58056 -122.56133 682 ft 171 kts 123°
2026-05-04 16:57 45.57689 -122.54492 1341 ft 177 kts 84°
2026-05-04 16:57 45.59510 -122.52190 2352 ft 222 kts
2026-05-04 16:58 45.63656 -122.56605 4342 ft 277 kts 339°
2026-05-04 16:58 45.65523 -122.57080 5294 ft 275 kts
2026-05-04 16:59 45.69401 -122.56442 7198 ft 282 kts
2026-05-04 17:00 45.77408 -122.55360 10706 ft 306 kts
2026-05-04 17:00 45.84204 -122.54499 12441 ft 339 kts
2026-05-04 17:01 45.88974 -122.53878 14032 ft 349 kts
2026-05-04 17:01 45.93841 -122.53242 15560 ft 355 kts
2026-05-04 17:02 45.98820 -122.52589 17062 ft 361 kts
2026-05-04 17:02 46.03856 -122.51925 18455 ft 367 kts
2026-05-04 17:03 46.06418 -122.51587 19059 ft 370 kts
2026-05-04 17:03 46.09001 -122.51245 19689 ft 372 kts
2026-05-04 17:03 46.14194 -122.50558 20909 ft 377 kts
2026-05-04 17:04 46.19418 -122.49865 22108 ft 381 kts
2026-05-04 17:04 46.24754 -122.49156 23281 ft 386 kts
2026-05-04 17:05 46.30119 -122.48442 24241 ft 391 kts
2026-05-04 17:05 46.35538 -122.47718 25112 ft 396 kts
2026-05-04 17:06 46.41030 -122.46983 25967 ft 401 kts
2026-05-04 17:06 46.43828 -122.46607 26393 ft 404 kts
2026-05-04 17:07 46.49448 -122.45852 27188 ft 409 kts
2026-05-04 17:07 46.51339 -122.45597 27481 ft 411 kts
2026-05-04 17:07 46.55159 -122.45083 27999 ft 414 kts
2026-05-04 17:07 46.58047 -122.44693 28390 ft 417 kts
2026-05-04 17:08 46.60922 -122.44305 28761 ft 419 kts
2026-05-04 17:08 46.66761 -122.43514 29703 ft 419 kts
2026-05-04 17:08 46.69657 -122.43121 29957 ft 421 kts
2026-05-04 17:09 46.72548 -122.42729 29951 ft 418 kts
2026-05-04 17:09 46.78360 -122.41939 29932 ft 417 kts
2026-05-04 17:10 46.92746 -122.39600 29945 ft 416 kts
2026-05-04 17:11 46.98466 -122.38634 29944 ft 416 kts
2026-05-04 17:12 47.06889 -122.37210 29947 ft 416 kts
2026-05-04 17:13 47.21218 -122.34778 29945 ft 415 kts
2026-05-04 17:14 47.32694 -122.32821 29947 ft 415 kts
2026-05-04 17:15 47.41269 -122.31353 29946 ft 414 kts
2026-05-04 17:15 47.47116 -122.30818 29228 ft 424 kts
2026-05-04 17:16 47.53033 -122.30448 28401 ft 431 kts
2026-05-04 17:16 47.62042 -122.29841 27253 ft 431 kts
2026-05-04 17:17 47.65025 -122.29637 26882 ft 429 kts
2026-05-04 17:17 47.73912 -122.29026 25814 ft 422 kts
2026-05-04 17:18 47.76826 -122.28825 25456 ft 420 kts
2026-05-04 17:18 47.82609 -122.28426 24775 ft 416 kts
2026-05-04 17:19 47.88379 -122.28026 24095 ft 412 kts
2026-05-04 17:19 47.94034 -122.28351 23433 ft 408 kts 348°
2026-05-04 17:20 47.99570 -122.29972 22582 ft 403 kts 349°
2026-05-04 17:20 48.05081 -122.31562 21721 ft 399 kts 349°
2026-05-04 17:20 48.07771 -122.32341 21299 ft 397 kts 349°
2026-05-04 17:21 48.13145 -122.33900 20456 ft 392 kts 349°
2026-05-04 17:21 48.18500 -122.35457 19613 ft 387 kts 349°
2026-05-04 17:22 48.21127 -122.36222 19206 ft 385 kts 349°
2026-05-04 17:22 48.23761 -122.36989 18795 ft 383 kts 349°
2026-05-04 17:23 48.31527 -122.39258 17529 ft 377 kts 349°
2026-05-04 17:23 48.34112 -122.40015 17098 ft 375 kts 349°
2026-05-04 17:23 48.39193 -122.41504 16412 ft 371 kts 349°
2026-05-04 17:24 48.41732 -122.42249 16073 ft 370 kts 349°
2026-05-04 17:24 48.49196 -122.44445 15090 ft 355 kts 349°
2026-05-04 17:25 48.51571 -122.45145 14776 ft 338 kts 349°
2026-05-04 17:25 48.56053 -122.46468 14111 ft 323 kts 349°
2026-05-04 17:26 48.60410 -122.47756 13392 ft 310 kts 349°
2026-05-04 17:26 48.66562 -122.49578 12381 ft 297 kts 349°
2026-05-04 17:27 48.70538 -122.51041 11776 ft 295 kts 332°
2026-05-04 17:27 48.73405 -122.55427 11301 ft 292 kts 309°
2026-05-04 17:28 48.75924 -122.60241 10874 ft 291 kts 309°
2026-05-04 17:29 48.79633 -122.67451 10265 ft 289 kts 308°
2026-05-04 17:29 48.82910 -122.73857 9724 ft 286 kts 308°
2026-05-04 17:30 48.86546 -122.80987 9053 ft 284 kts 308°
2026-05-04 17:31 48.88934 -122.85680 8635 ft 273 kts 308°
2026-05-04 17:31 48.92284 -122.92269 7980 ft 259 kts 308°
2026-05-04 17:32 48.94507 -122.96604 7540 ft 258 kts 308°
2026-05-04 17:33 48.98981 -123.00075 6842 ft 256 kts
2026-05-04 17:33 49.00762 -123.00015 6600 ft 257 kts
2026-05-04 17:34 49.05957 -122.98757 5839 ft 253 kts 40°
2026-05-04 17:34 49.06964 -122.96638 5604 ft 242 kts 70°
2026-05-04 17:35 49.07184 -122.89338 4980 ft 227 kts 91°
2026-05-04 17:35 49.07117 -122.84530 4567 ft 224 kts 91°
2026-05-04 17:35 49.07081 -122.82154 4337 ft 224 kts 92°
2026-05-04 17:36 49.07039 -122.79796 4141 ft 222 kts 91°
2026-05-04 17:36 49.07329 -122.77536 4025 ft 217 kts 61°
2026-05-04 17:36 49.08365 -122.75959 3924 ft 207 kts 27°
2026-05-04 17:36 49.09713 -122.75661 3908 ft 193 kts 348°
2026-05-04 17:37 49.10976 -122.76390 4027 ft 195 kts 336°
2026-05-04 17:37 49.12160 -122.77395 3996 ft 197 kts 325°
2026-05-04 17:37 49.13217 -122.78702 3961 ft 196 kts 321°
2026-05-04 17:37 49.14254 -122.80049 3928 ft 196 kts 320°
2026-05-04 17:38 49.15297 -122.81412 3969 ft 197 kts 319°
2026-05-04 17:38 49.16043 -122.83144 3974 ft 196 kts 291°
2026-05-04 17:38 49.16435 -122.85137 3938 ft 198 kts 283°
2026-05-04 17:38 49.16706 -122.87174 3697 ft 191 kts 281°
2026-05-04 17:39 49.17165 -122.91101 3203 ft 186 kts 281°
2026-05-04 17:39 49.17388 -122.93014 2949 ft 183 kts 280°
2026-05-04 17:39 49.17611 -122.94937 2728 ft 182 kts 280°
2026-05-04 17:40 49.17828 -122.96800 2509 ft 174 kts 280°
2026-05-04 17:40 49.18033 -122.98583 2308 ft 170 kts 280°
2026-05-04 17:40 49.18239 -123.00360 2066 ft 168 kts 280°
2026-05-04 17:40 49.18442 -123.02120 1834 ft 166 kts 280°
2026-05-04 17:41 49.18635 -123.03790 1618 ft 156 kts 279°
2026-05-04 17:41 49.18823 -123.05412 1408 ft 153 kts 280°
2026-05-04 17:41 49.19006 -123.06998 1211 ft 152 kts 279°
2026-05-04 17:41 49.19191 -123.08593 1000 ft 151 kts 279°
2026-05-04 17:42 49.19370 -123.10141 807 ft 149 kts 279°
2026-05-04 17:42 49.19550 -123.11710 601 ft 147 kts 280°
2026-05-04 17:42 49.19727 -123.13234 400 ft 146 kts 281°
2026-05-04 17:42 49.19910 -123.14749 207 ft 144 kts 281°
2026-05-04 17:43 49.20083 -123.16271 49 ft 145 kts 281°
2026-05-04 17:43 49.20243 -123.17665 20 ft 116 kts 279°
2026-05-04 17:43 49.20353 -123.18631 27 ft 67 kts 279°
2026-05-04 17:43 49.20391 -123.19116 22 ft 33 kts 265°
2026-05-04 17:44 49.20355 -123.19348 24 ft 15 kts 252°
2026-05-04 17:44 49.20324 -123.19493 23 ft 18 kts 250°
2026-05-04 17:44 49.20283 -123.19606 25 ft 11 kts 206°
2026-05-04 17:44 49.20244 -123.19558 23 ft 9 kts 107°
2026-05-04 17:45 49.20231 -123.19450 23 ft 12 kts 99°
2026-05-04 17:45 49.20216 -123.19314 27 ft 14 kts 101°
2026-05-04 17:45 49.20197 -123.19153 24 ft 17 kts 99°
2026-05-04 17:45 49.20177 -123.18967 23 ft 19 kts 99°
2026-05-04 17:46 49.20153 -123.18759 24 ft 21 kts 100°
2026-05-04 17:46 49.20127 -123.18524 22 ft 23 kts 100°
2026-05-04 17:46 49.20099 -123.18283 25 ft 23 kts 100°
2026-05-04 17:46 49.20074 -123.18062 22 ft 22 kts 99°
2026-05-04 17:47 49.20046 -123.17821 21 ft 24 kts 100°
2026-05-04 17:47 49.20015 -123.17560 23 ft 26 kts 100°
2026-05-04 17:47 49.19996 -123.17397 22 ft 13 kts 100°
2026-05-04 17:47 49.19978 -123.17243 21 ft 16 kts 99°
2026-05-04 17:48 49.19953 -123.17143 21 ft 8 kts 150°
2026-05-04 17:48 49.19895 -123.17171 22 ft 10 kts 215°
2026-05-04 17:48 49.19825 -123.17190 20 ft 9 kts 180°
2026-05-04 17:48 49.19752 -123.17190 20 ft 12 kts 181°
2026-05-04 17:49 49.19675 -123.17204 20 ft 11 kts 208°
2026-05-04 17:49 49.19652 -123.17316 20 ft 13 kts 277°
2026-05-04 17:49 49.19653 -123.17428 20 ft 8 kts 286°
2026-05-04 17:49 49.19691 -123.17486 22 ft 0 kts 332°